Hourly Weather Dorchester

Today, 6 August, Thursday

Time Temperature Precipitation Wind Pressure Humidity
00:00 +18°C° 0 mm 4 mps 756 mmHg 90%
01:00 +18°C° 0 mm 3 mps 756 mmHg 92%
02:00 +17°C° 0 mm 3 mps 756 mmHg 94%
03:00 +17°C° 0 mm 2 mps 756 mmHg 96%
04:00 +17°C° 0 mm 2 mps 756 mmHg 96%
05:00 +17°C° 0 mm 2 mps 757 mmHg 95%
06:00 +17°C° 0 mm 2 mps 757 mmHg 94%
07:00 +18°C° 0.1 mm 2 mps 757 mmHg 91%
08:00 +19°C° 0.1 mm 3 mps 757 mmHg 88%
09:00 +20°C° 0.1 mm 3 mps 758 mmHg 86%
10:00 +21°C° 0.1 mm 3 mps 758 mmHg 82%
11:00 +22°C° 0.1 mm 4 mps 758 mmHg 79%
12:00 +23°C° 0.1 mm 5 mps 758 mmHg 76%
13:00 +25°C° 0.1 mm 4 mps 758 mmHg 72%
14:00 +26°C° 0.1 mm 4 mps 758 mmHg 69%
15:00 +26°C° 0.1 mm 4 mps 758 mmHg 65%
16:00 +26°C° 0 mm 3 mps 758 mmHg 66%
17:00 +26°C° 0 mm 3 mps 757 mmHg 66%
18:00 +26°C° 0 mm 3 mps 757 mmHg 67%
19:00 +24°C° 0 mm 3 mps 758 mmHg 72%
20:00 +23°C° 0 mm 2 mps 758 mmHg 78%
21:00 +20°C° 0 mm 2 mps 758 mmHg 83%
22:00 +19°C° 0 mm 2 mps 758 mmHg 85%
23:00 +19°C° 0 mm 2 mps 758 mmHg 86%

Tomorrow, 7 August, Friday

Time Temperature Precipitation Wind Pressure Humidity
00:00 +19°C° 0 mm 1 mps 758 mmHg 88%
01:00 +19°C° 0 mm 1 mps 758 mmHg 88%
02:00 +18°C° 0 mm 1 mps 758 mmHg 89%
03:00 +18°C° 0 mm 1 mps 758 mmHg 89%
04:00 +19°C° 0 mm 1 mps 758 mmHg 87%
05:00 +17°C° 0 mm 0 mps 758 mmHg 85%
06:00 +18°C° 0 mm 0 mps 759 mmHg 82%
07:00 +20°C° 0 mm 0 mps 759 mmHg 74%
08:00 +24°C° 0 mm 1 mps 759 mmHg 66%
09:00 +26°C° 0 mm 1 mps 759 mmHg 57%
10:00 +27°C° 0 mm 1 mps 759 mmHg 52%
11:00 +29°C° 0 mm 2 mps 759 mmHg 47%
12:00 +30°C° 0 mm 2 mps 758 mmHg 42%
13:00 +31°C° 0 mm 3 mps 758 mmHg 40%
14:00 +33°C° 0 mm 3 mps 758 mmHg 39%
15:00 +34°C° 0 mm 4 mps 758 mmHg 37%
16:00 +33°C° 0 mm 3 mps 758 mmHg 42%
17:00 +30°C° 0 mm 3 mps 758 mmHg 47%
18:00 +29°C° 0 mm 2 mps 758 mmHg 52%
19:00 +28°C° 0 mm 2 mps 758 mmHg 53%
20:00 +26°C° 0 mm 2 mps 758 mmHg 55%
21:00 +25°C° 0 mm 1 mps 758 mmHg 56%
22:00 +24°C° 0 mm 1 mps 758 mmHg 58%
23:00 +23°C° 0 mm 1 mps 758 mmHg 59%

Day after tomorrow, 8 August, Saturday

Time Temperature Precipitation Wind Pressure Humidity
00:00 +21°C° 0 mm 0 mps 758 mmHg 61%
01:00 +21°C° 0 mm 0 mps 758 mmHg 61%
02:00 +23°C° 0 mm 1 mps 758 mmHg 62%
03:00 +23°C° 0 mm 1 mps 758 mmHg 62%
04:00 +23°C° 0 mm 1 mps 758 mmHg 64%
05:00 +23°C° 0 mm 1 mps 758 mmHg 66%
06:00 +23°C° 0 mm 1 mps 758 mmHg 69%
07:00 +24°C° 0 mm 2 mps 758 mmHg 67%
08:00 +25°C° 0 mm 2 mps 759 mmHg 65%
09:00 +26°C° 0 mm 2 mps 759 mmHg 64%
10:00 +27°C° 0 mm 3 mps 759 mmHg 59%
11:00 +29°C° 0 mm 3 mps 759 mmHg 55%
12:00 +30°C° 0 mm 3 mps 759 mmHg 50%
13:00 +31°C° 0 mm 3 mps 759 mmHg 48%
14:00 +33°C° 0 mm 3 mps 758 mmHg 46%
15:00 +34°C° 0 mm 3 mps 758 mmHg 44%
16:00 +31°C° 0 mm 3 mps 758 mmHg 50%
17:00 +30°C° 0 mm 4 mps 758 mmHg 57%
18:00 +28°C° 0 mm 4 mps 758 mmHg 63%
19:00 +27°C° 0.2 mm 4 mps 758 mmHg 67%
20:00 +25°C° 0.2 mm 4 mps 758 mmHg 72%
21:00 +22°C° 0.2 mm 5 mps 758 mmHg 76%
22:00 +22°C° 0.5 mm 4 mps 759 mmHg 79%
23:00 +21°C° 0.5 mm 4 mps 759 mmHg 81%

9 August, Sunday

Time Temperature Precipitation Wind Pressure Humidity
00:00 +20°C° 0.5 mm 3 mps 759 mmHg 84%
01:00 +20°C° 0.2 mm 4 mps 758 mmHg 85%
02:00 +20°C° 0.2 mm 4 mps 758 mmHg 85%
03:00 +19°C° 0.2 mm 4 mps 758 mmHg 86%
04:00 +19°C° 0.6 mm 4 mps 758 mmHg 87%
05:00 +19°C° 0.6 mm 4 mps 758 mmHg 88%
06:00 +19°C° 0.6 mm 4 mps 758 mmHg 89%
07:00 +20°C° 0.2 mm 4 mps 758 mmHg 88%
08:00 +21°C° 0.2 mm 4 mps 758 mmHg 87%
09:00 +21°C° 0.2 mm 5 mps 758 mmHg 86%
10:00 +23°C° 0.3 mm 5 mps 758 mmHg 80%
11:00 +26°C° 0.3 mm 6 mps 758 mmHg 75%
12:00 +27°C° 0.3 mm 6 mps 758 mmHg 69%
13:00 +28°C° 0.7 mm 6 mps 757 mmHg 69%
14:00 +28°C° 0.7 mm 6 mps 757 mmHg 68%
15:00 +29°C° 0.7 mm 6 mps 757 mmHg 68%
16:00 +28°C° 1 mm 6 mps 757 mmHg 72%
17:00 +27°C° 1 mm 6 mps 757 mmHg 76%
18:00 +26°C° 1 mm 6 mps 757 mmHg 80%
19:00 +25°C° 0.6 mm 5 mps 757 mmHg 83%
20:00 +23°C° 0.6 mm 5 mps 757 mmHg 87%
21:00 +22°C° 0.6 mm 4 mps 757 mmHg 90%
22:00 +21°C° 0 mm 4 mps 757 mmHg 92%
23:00 +20°C° 0 mm 4 mps 756 mmHg 94%

10 August, Monday

Time Temperature Precipitation Wind Pressure Humidity
00:00 +20°C° 0 mm 3 mps 756 mmHg 96%
01:00 +20°C° 0.1 mm 3 mps 756 mmHg 96%
02:00 +19°C° 0.1 mm 3 mps 756 mmHg 96%
03:00 +19°C° 0.1 mm 3 mps 755 mmHg 96%
04:00 +19°C° 0 mm 3 mps 755 mmHg 96%
05:00 +20°C° 0 mm 3 mps 755 mmHg 95%
06:00 +20°C° 0 mm 3 mps 755 mmHg 95%
07:00 +20°C° 0 mm 2 mps 756 mmHg 93%
08:00 +21°C° 0 mm 2 mps 756 mmHg 91%
09:00 +21°C° 0 mm 2 mps 756 mmHg 88%
10:00 +23°C° 0 mm 1 mps 756 mmHg 85%
11:00 +25°C° 0 mm 1 mps 756 mmHg 81%
12:00 +26°C° 0 mm 1 mps 756 mmHg 77%
13:00 +26°C° 0 mm 1 mps 756 mmHg 74%
14:00 +27°C° 0 mm 2 mps 755 mmHg 71%
15:00 +28°C° 0 mm 2 mps 755 mmHg 69%
16:00 +27°C° 0 mm 2 mps 755 mmHg 72%
17:00 +26°C° 0 mm 3 mps 755 mmHg 75%
18:00 +26°C° 0 mm 3 mps 755 mmHg 79%
19:00 +24°C° 0 mm 3 mps 755 mmHg 84%
20:00 +22°C° 0 mm 3 mps 756 mmHg 89%
21:00 +20°C° 0 mm 2 mps 756 mmHg 94%
22:00 +20°C° 0 mm 2 mps 756 mmHg 95%
23:00 +20°C° 0 mm 2 mps 756 mmHg 95%

11 August, Tuesday

Time Temperature Precipitation Wind Pressure Humidity
00:00 +19°C° 0 mm 2 mps 756 mmHg 95%
01:00 +19°C° 0 mm 2 mps 756 mmHg 96%
02:00 +19°C° 0 mm 2 mps 756 mmHg 96%
03:00 +19°C° 0 mm 2 mps 756 mmHg 96%
04:00 +19°C° 0 mm 2 mps 756 mmHg 96%
05:00 +19°C° 0 mm 2 mps 756 mmHg 95%
06:00 +19°C° 0 mm 2 mps 756 mmHg 94%
07:00 +21°C° 0 mm 3 mps 756 mmHg 89%
08:00 +22°C° 0 mm 3 mps 756 mmHg 84%
09:00 +24°C° 0 mm 3 mps 757 mmHg 78%
10:00 +25°C° 0 mm 3 mps 757 mmHg 75%
11:00 +26°C° 0 mm 3 mps 757 mmHg 71%
12:00 +27°C° 0 mm 3 mps 757 mmHg 68%
13:00 +28°C° 0 mm 3 mps 757 mmHg 67%
14:00 +28°C° 0 mm 3 mps 757 mmHg 65%
15:00 +28°C° 0 mm 2 mps 757 mmHg 64%
16:00 +27°C° 0 mm 2 mps 757 mmHg 66%
17:00 +27°C° 0 mm 3 mps 757 mmHg 68%
18:00 +26°C° 0 mm 3 mps 757 mmHg 71%
19:00 +25°C° 0 mm 3 mps 757 mmHg 75%
20:00 +24°C° 0 mm 3 mps 757 mmHg 79%
21:00 +21°C° 0 mm 3 mps 757 mmHg 83%
22:00 +21°C° 0 mm 3 mps 758 mmHg 84%
23:00 +20°C° 0 mm 3 mps 758 mmHg 86%
Show more